Location: Maiden
(35.5760°N, 81.2120°W)
Time: 22:17:43
(UTC-04:00)

A-11 Canister half - Pass Details

Date: 12 August 2020
Orbit: 1514 x 1686 km, 47.2° (Epoch: 26 September)

Event Time Altitude Azimuth Distance (km) Brightness Sun altitude
Rises 00:33:26 0° 303° (WNW) 4,865 12.2 -37.8°
Reaches altitude 10° 00:36:32 10° 305° (NW) 3,896 11.6 -38.0°
Enters shadow 00:46:26 85° 4° (N) 1,686 9.0 -38.6°
